sat.trackr.live / text

‹ back to catalog

STARLINK-35496

NORAD 66114 · 2025-237A

PAYLOAD ACTIVE UNKNOWN

§ Identity

Operator
Country
US
Launch date
2025-10-22
Launch site
AFWTR
Launch vehicle
Mass (kg)
RCS (m²)

Purposes: comms

External: N2YO · Heavens-Above · Gunter

§ Orbital elements

Epoch: 2026-05-25T03:02:41.244864Z

Period
94.10 min
Inclination
53.1591°
Eccentricity
0.0001109
Mean motion
15.30208117 rev/d
Perigee alt
474.4 km
Apogee alt
476.0 km
Semi-major
6,853.3 km
B*
1.0789e-3
RAAN
44.5640°
Arg perigee
87.2416°
Mean anomaly
272.8712°
Rev number
3,431

§ Raw data

STARLINK-354961 66114U 25237A   26145.12686626  .00031740  00000+0  10789-2 0  99932 66114  53.1591  44.5640 0001109  87.2416 272.8712 15.30208117 34314

JSON: /api/v1/satellites/66114 · /tle

For live sub-satellite position, see the globe view (requires WebGL).

§ Visibility from observer

Set your observer location to see the next 7 days of passes ≥ 10°. The values pass through the URL so the page stays shareable.

No JS? Fill the form by hand. The geolocation button needs JavaScript.